GEFSSGP_con_cape1000_054.txt.gz
Probability
0 0 0 0 0 0 0 0 0 0 0 0 0 0 26 42 6 0 0 0 0 39 97 100 100 100 100 100 100 97 94 97 97 100 94 94 97 94 84 87 87 84 65 48 45 45 48 48 58
0 0 0 0 0 0 0 0 0 0 0 0 0 0 0 0 0 0 0 0 3 65 94 100 100 100 100 100 100 100 97 100 100 97 100 97 97 84 68 65 74 81 61 35 32 16 10 16 19
0 0 0 0 0 0 0 0 0 0 0 0 0 3 3 0 0 0 0 0 6 48 81 100 100 100 100 100 100 100 100 100 100 100 100 100 100 81 68 61 61 71 61 42 29 10 6 6 10
0 0 0 0 0 0 0 0 0 0 0 0 3 3 0 0 0 0 0 3 3 16 84 100 100 100 100 100 100 100 97 100 100 100 100 100 100 94 74 74 61 65 61 48 42 35 29 26 23
0 0 0 0 0 0 0 0 0 0 0 0 3 0 0 0 0 0 0 0 3 35 94 100 100 100 100 100 100 100 97 100 100 100 100 100 100 100 94 90 84 71 65 65 55 61 61 61 68
0 0 0 0 0 0 0 0 0 0 0 0 0 0 0 0 0 0 0 0 0 39 94 100 100 100 100 100 100 100 100 100 100 100 100 100 100 100 100 97 97 90 84 81 71 81 84 84 84
0 0 0 0 0 0 0 0 0 0 0 0 0 0 0 0 0 0 0 0 0 13 81 100 100 100 100 100 100 100 100 100 100 100 100 100 100 100 100 100 100 100 100 100 97 94 94 94 100
0 0 0 0 0 0 0 0 0 0 0 0 0 0 0 0 0 0 0 0 0 3 39 90 100 100 100 100 100 100 100 100 100 100 100 100 100 100 100 100 100 100 100 100 100 100 100 100 100
0 0 0 0 0 0 0 0 0 0 0 0 0 0 0 0 0 0 0 3 0 0 13 77 87 87 90 100 100 100 100 100 100 100 100 100 100 100 100 100 100 100 100 100 100 100 100 100 100
0 0 0 0 0 0 0 0 0 0 0 0 0 0 0 0 0 0 10 10 10 3 0 23 65 68 65 90 94 97 100 100 100 100 100 100 87 68 97 100 100 100 100 100 100 100 100 100 94
0 0 0 0 0 0 0 0 0 0 0 0 0 0 0 0 0 0 3 19 23 6 0 3 16 23 29 13 19 87 90 94 94 87 84 87 74 65 87 55 97 100 100 100 100 100 100 97 77
0 0 0 0 0 0 0 0 0 0 0 0 0 0 0 0 0 0 0 3 32 26 6 3 0 0 3 0 13 23 39 65 71 81 74 74 68 52 35 26 19 42 90 100 90 81 68 65 45
0 0 0 0 0 0 0 0 0 0 0 0 0 0 0 0 0 3 3 6 19 32 32 13 3 6 6 6 3 13 10 16 29 35 52 68 74 55 45 58 58 42 48 61 71 48 32 32 29
0 0 0 0 0 0 0 0 0 0 0 0 0 0 3 6 6 6 10 6 13 35 45 39 19 19 23 19 29 29 26 29 42 35 35 61 71 71 68 61 71 71 61 61 71 52 35 29 26
0 0 0 0 0 0 0 0 0 0 0 3 10 16 26 23 23 23 23 23 6 13 29 52 42 39 32 45 65 68 61 58 61 74 61 61 74 81 77 74 74 84 65 58 61 48 29 32 35
0 0 0 0 0 0 0 0 0 3 3 13 16 29 35 58 61 65 65 58 52 39 45 65 77 68 71 71 84 87 84 81 84 87 90 81 77 81 87 87 87 87 71 58 58 42 42 45 23
0 0 0 0 0 0 0 0 0 3 6 19 26 52 68 68 65 74 81 84 81 65 68 81 81 87 87 87 87 87 94 94 100 97 94 94 94 90 97 97 97 87 65 58 55 39 13 13 6
0 0 0 0 0 0 0 0 0 3 6 23 35 61 68 68 74 77 71 71 77 77 84 81 77 81 84 81 84 87 97 97 94 97 94 94 94 97 97 97 87 84 74 55 45 42 19 13 3
0 0 0 0 0 0 0 0 0 0 10 29 35 52 52 65 74 71 68 71 68 74 61 58 71 71 77 74 84 81 87 97 94 90 90 94 90 94 94 87 77 74 65 48 35 26 19 13 3
0 0 0 0 0 0 0 0 0 3 3 23 39 48 52 45 55 55 58 58 65 61 58 61 65 65 74 74 84 84 84 87 87 84 87 87 87 90 87 84 81 74 48 42 35 29 26 16 3
0 0 0 0 0 0 0 0 0 6 13 19 26 35 39 39 39 39 35 42 39 48 58 71 65 65 65 68 61 65 65 74 77 81 81 77 90 90 84 77 71 68 52 45 32 29 23 19 10
0 0 0 0 0 0 0 0 0 3 16 19 19 26 39 42 32 26 19 13 26 26 42 48 48 45 42 45 42 48 55 55 55 55 74 61 68 74 77 81 68 65 55 48 39 29 23 16 13
0 0 0 0 0 0 0 0 0 0 6 13 19 19 19 23 29 23 23 16 16 16 29 32 26 13 23 26 19 19 19 26 26 19 29 29 32 42 48 58 58 58 48 55 48 23 19 19 13
0 0 0 0 0 0 0 0 0 0 3 13 16 19 13 16 13 10 10 13 13 13 19 13 10 10 10 10 10 10 13 6 10 10 10 10 6 6 10 26 32 39 39 42 45 19 16 16 13
0 0 0 0 0 0 0 0 0 0 3 0 6 10 13 10 10 10 10 10 6 13 10 3 3 3 3 6 3 0 3 3 3 0 3 3 3 10 10 6 6 13 23 19 23 23 16 13 16
0 0 0 0 0 0 0 0 0 0 3 0 3 6 13 6 10 10 10 10 10 10 3 3 3 3 3 0 0 0 0 0 0 0 0 0 3 3 3 6 3 3 3 19 10 10 13 13 6
0 0 0 0 0 0 0 0 0 0 0 0 0 0 3 3 3 6 6 6 6 3 6 3 3 3 6 0 0 3 0 0 0 0 0 0 0 0 0 0 0 3 3 0 3 3 6 3 6
0 0 0 0 0 0 0 0 0 0 0 0 0 0 0 3 3 3 3 3 0 3 3 0 3 3 3 0 3 3 0 0 0 0 0 0 0 0 0 0 0 0 0 0 0 0 0 0 0
0 0 0 0 0 0 0 0 0 0 0 0 0 0 0 0 0 0 0 0 0 0 0 0 0 3 0 0 0 0 0 0 0 0 0 0 0 0 0 0 0 0 0 0 0 0 0 0 0
0 0 0 0 0 0 0 0 0 0 0 0 0 0 0 0 0 0 0 0 0 0 0 0 0 0 0 0 0 0 0 0 0 0 0 0 0 0 0 0 0 0 0 0 0 0 0 0 0

GEFSSGP_con_cape1000_060.txt.gz
Probability
0 0 0 0 0 0 0 0 0 0 0 0 0 0 0 0 0 0 0 0 0 10 84 100 100 94 90 87 87 97 100 100 100 100 100 100 100 100 100 97 77 55 39 29 39 48 58 68 71
0 0 0 0 0 0 0 0 0 0 0 0 0 0 0 0 0 0 0 0 0 52 87 94 100 97 94 94 90 97 97 100 100 100 100 100 100 100 84 77 74 48 35 26 16 26 39 45 45
0 0 0 0 0 0 0 0 0 0 0 0 0 0 0 0 0 0 0 0 3 71 84 94 100 100 97 94 94 97 100 100 100 100 100 100 97 97 94 84 77 65 42 26 16 16 13 23 29
0 0 0 0 0 0 0 0 0 0 0 0 0 0 0 0 0 0 0 3 23 68 81 94 100 100 100 100 97 97 97 100 100 100 100 100 100 97 94 87 87 84 87 55 39 39 32 35 35
0 0 0 0 0 0 0 0 0 0 0 0 0 0 0 0 0 0 0 3 23 61 77 97 100 100 100 100 100 100 100 100 100 100 100 100 100 100 100 100 94 97 90 90 90 84 77 71 65
0 0 0 0 0 0 0 0 0 0 0 0 0 0 0 0 0 0 0 3 16 58 77 100 100 100 100 100 100 100 100 100 100 100 100 100 100 100 100 100 100 100 100 97 97 94 94 94 94
0 0 0 0 0 0 0 0 0 0 0 0 0 0 0 0 0 0 0 0 13 55 90 100 100 100 100 100 100 100 100 100 100 100 100 100 100 100 100 100 100 100 100 100 100 100 100 100 100
0 0 0 0 0 0 0 0 0 0 0 0 0 0 0 0 0 0 0 0 13 58 100 100 100 100 100 100 100 100 100 100 100 100 100 100 100 100 100 100 100 100 100 100 100 100 100 100 100
0 0 0 0 0 0 0 0 0 0 0 0 0 0 0 0 0 0 0 0 10 52 94 100 97 94 97 97 100 100 100 100 100 100 100 100 100 100 100 100 100 100 100 100 100 100 100 100 100
0 0 0 0 0 0 0 0 0 0 0 0 0 0 0 0 0 0 0 3 3 16 68 100 97 97 97 100 100 100 100 100 100 100 100 100 100 100 100 100 100 100 100 100 100 100 100 100 100
0 0 0 0 0 0 0 0 0 0 0 0 0 0 3 0 0 0 0 0 3 3 45 81 97 97 97 97 84 94 97 100 100 100 100 100 100 87 100 97 97 100 100 100 100 100 100 100 100
0 0 0 0 0 0 0 0 0 0 0 0 0 0 3 6 0 0 0 3 6 0 0 55 81 97 90 81 58 58 87 90 97 100 97 90 94 87 90 87 84 68 68 90 100 100 100 100 100
0 0 0 0 0 0 0 0 0 0 0 0 0 0 3 3 3 0 0 6 10 6 3 16 55 74 81 77 52 45 61 77 81 84 90 90 90 84 81 71 55 48 42 48 61 84 100 100 100
0 0 0 0 0 0 0 0 0 0 0 0 0 3 0 0 0 6 3 16 16 10 10 3 19 42 48 48 42 26 19 45 42 55 61 81 87 74 48 42 39 32 32 29 45 65 84 94 87
0 0 0 0 0 0 0 0 0 0 6 10 10 13 13 10 6 6 13 29 26 19 13 13 3 6 19 26 16 10 10 19 16 23 23 29 48 52 39 35 35 32 35 35 39 58 58 58 52
0 0 0 0 0 0 0 0 0 13 23 19 23 35 35 35 35 35 26 23 23 32 29 16 29 10 10 13 10 13 13 16 29 32 26 32 29 39 42 48 48 45 45 42 39 32 32 39 39
0 0 0 0 0 0 0 0 3 19 26 42 45 48 55 55 55 68 52 48 39 39 32 29 35 32 19 19 26 29 35 42 52 52 55 61 61 58 61 68 65 58 52 45 32 42 32 19 23
0 0 0 0 0 0 0 0 16 23 42 52 52 48 55 61 61 74 77 71 68 42 48 52 52 45 39 32 32 48 48 55 65 68 74 74 74 87 84 71 68 61 65 48 45 35 29 19 19
0 0 0 0 0 0 3 6 13 32 45 45 39 48 61 61 61 58 61 55 58 48 42 45 42 32 26 32 32 35 45 52 52 55 65 61 61 65 74 81 77 65 77 55 48 35 29 26 19
0 0 0 0 0 0 0 3 6 19 32 32 35 45 58 58 55 52 45 42 39 42 39 26 23 19 19 16 13 19 26 35 32 32 23 29 35 32 45 48 52 55 61 65 55 45 35 26 16
0 0 0 0 0 0 0 0 0 6 29 29 32 42 45 45 45 48 39 39 32 26 16 23 13 13 13 10 10 10 3 6 6 10 6 13 13 10 19 23 26 32 29 23 29 39 35 23 26
0 0 0 0 0 0 0 0 0 0 13 26 35 39 35 35 32 32 29 23 19 23 10 6 6 6 6 6 3 3 3 3 6 3 3 3 3 10 10 10 16 16 26 23 32 23 16 19 16
0 0 0 0 0 0 0 0 0 0 6 13 23 39 29 23 29 19 13 10 13 16 16 6 3 3 3 6 3 0 0 0 0 0 0 0 0 0 0 3 6 10 10 6 19 16 10 13 13
0 0 0 0 0 0 0 0 0 0 0 3 16 19 26 26 19 16 16 10 10 10 10 6 10 6 3 3 0 0 0 0 0 0 0 0 0 0 0 0 3 6 3 6 6 10 10 13 10
0 0 0 0 0 0 0 0 0 0 0 0 6 13 16 13 16 13 10 10 10 6 6 10 10 6 3 3 0 0 0 0 0 0 0 0 0 0 0 0 0 0 3 0 3 10 3 6 16
0 0 0 0 0 0 0 0 0 0 0 3 3 3 3 3 0 0 0 0 3 6 6 3 3 6 0 0 0 0 0 0 0 0 0 0 0 0 0 0 0 0 0 0 0 3 3 3 6
0 0 0 0 0 0 0 0 0 0 0 0 3 0 0 0 0 0 0 0 0 0 3 3 3 0 0 0 0 0 0 0 0 0 0 0 0 0 0 0 0 0 0 0 0 3 0 6 10
0 0 0 0 0 0 0 0 0 0 0 0 0 0 0 0 0 0 0 0 0 0 0 0 3 0 0 0 0 0 0 0 0 0 0 0 0 0 0 0 0 0 0 0 0 0 0 3 6
0 0 0 0 0 0 0 0 0 0 0 0 0 0 0 0 0 0 0 0 0 0 0 0 0 0 0 0 0 0 0 0 0 0 0 0 0 0 0 0 0 0 0 0 0 0 0 0 0
0 0 0 0 0 0 0 0 0 0 0 0 0 0 0 0 0 0 0 0 0 0 0 0 0 0 0 0 0 0 0 0 0 0 0 0 0 0 0 0 0 0 0 0 0 0 0 0 0

GEFSSGP_con_cape1000_066.txt.gz
Probability
0 0 0 0 16 0 0 0 0 0 0 0 0 0 0 0 0 23 16 0 0 13 84 81 100 100 100 100 100 100 100 100 100 100 100 100 100 87 74 55 42 29 35 45 48 65 61 68 71
0 0 0 0 0 0 0 0 0 0 0 0 0 0 0 0 0 0 0 0 3 26 77 65 100 100 100 100 100 100 100 100 100 100 100 100 100 90 74 45 39 32 23 32 35 32 42 42 48
0 0 0 0 0 0 0 0 0 0 0 0 0 0 0 3 0 0 0 0 6 23 77 100 100 100 100 100 100 100 100 100 100 100 100 100 100 94 84 71 42 29 19 23 13 16 16 23 23
0 0 0 0 0 0 0 0 0 0 0 0 0 0 0 3 0 0 0 0 6 13 55 100 100 100 100 100 100 100 100 100 100 100 100 100 97 97 87 74 58 52 29 19 13 3 6 13 13
0 0 0 0 0 0 0 0 0 0 0 0 0 0 0 19 0 0 0 0 10 6 39 100 100 100 100 100 100 100 100 100 100 100 100 100 100 100 97 87 77 68 74 71 61 48 48 42 39
0 0 0 0 0 0 0 0 0 0 0 0 0 0 10 32 3 3 3 10 6 10 23 100 100 100 100 100 100 100 100 100 100 100 100 100 100 100 100 100 97 94 97 90 90 94 90 90 94
0 0 0 0 0 0 0 0 0 0 0 0 0 0 13 39 19 13 16 13 6 10 16 100 100 100 100 100 100 100 100 100 100 100 100 100 100 100 100 100 100 100 100 100 97 97 97 94 97
0 0 0 0 0 0 0 0 0 0 0 3 3 0 3 52 42 32 42 32 16 16 16 97 100 100 97 100 100 100 100 100 100 100 100 100 100 100 100 100 100 100 100 100 100 100 100 100 100
0 0 0 0 0 0 0 0 0 0 6 16 13 16 26 68 61 74 84 74 74 55 77 84 81 97 94 84 97 100 100 100 100 100 100 100 100 90 100 100 100 100 100 100 100 100 100 100 100
0 0 0 0 0 0 0 0 0 0 0 23 32 61 77 87 90 87 87 81 84 87 90 100 81 97 97 77 94 97 97 100 100 100 100 100 100 100 94 97 100 100 100 100 100 100 100 100 100
0 0 0 0 0 0 0 0 0 0 0 0 13 65 90 90 90 81 77 74 77 87 94 97 97 100 97 97 97 97 100 100 100 100 100 100 100 100 97 94 100 100 100 100 100 100 100 100 100
0 0 0 0 0 0 0 0 0 0 0 0 10 71 84 90 84 77 77 77 74 87 87 90 100 100 100 100 100 100 100 97 100 100 100 100 100 100 100 100 97 94 97 100 100 100 94 100 100
0 0 0 0 0 0 0 0 0 3 6 16 35 77 84 84 84 87 87 87 87 87 94 97 100 100 100 100 100 97 100 100 100 100 100 100 100 100 100 100 100 94 90 94 100 100 100 100 97
0 0 0 0 0 0 0 0 0 13 16 26 52 74 81 84 87 90 94 100 97 94 94 94 100 100 100 100 100 97 97 100 100 97 97 100 97 94 94 100 100 97 97 100 97 94 97 94 97
0 0 0 0 0 0 0 0 10 23 23 32 48 77 87 94 94 97 100 100 100 97 97 97 97 100 100 100 100 97 97 94 94 100 100 97 97 94 94 94 97 100 100 100 97 97 94 94 90
0 0 0 0 0 0 0 0 10 32 26 32 48 74 94 97 94 100 100 97 97 97 97 97 90 97 100 100 100 94 94 97 100 94 94 97 97 97 94 90 87 97 100 100 97 94 94 94 94
0 0 0 0 0 0 0 0 29 42 42 52 65 84 90 97 97 94 90 87 94 94 97 94 90 90 87 94 94 87 94 97 90 84 90 87 97 100 100 97 97 100 100 100 90 90 94 94 90
0 0 0 0 0 0 0 16 32 48 55 58 71 81 87 87 90 90 87 81 84 90 94 90 90 87 87 77 74 84 81 74 71 71 84 84 87 84 87 94 94 97 97 100 100 94 90 84 87
0 0 0 0 0 0 3 19 32 55 61 68 74 81 81 71 77 81 77 74 77 87 87 87 84 90 90 68 61 55 39 39 39 48 45 52 58 52 71 61 77 77 77 87 90 94 87 81 77
0 0 0 0 0 0 3 10 29 55 58 68 68 77 71 68 74 71 74 55 61 74 77 87 90 87 90 84 77 65 58 32 16 19 35 32 26 32 26 35 39 42 65 68 74 84 77 61 71
0 0 0 0 0 0 0 0 23 42 61 68 74 77 77 71 61 58 55 65 58 68 74 61 94 94 94 90 61 52 65 48 10 16 29 29 19 16 26 26 32 35 35 39 58 65 68 65 68
0 0 0 0 0 0 0 0 3 26 39 58 68 68 71 61 58 55 48 65 61 68 74 87 94 97 97 94 65 39 48 10 19 26 16 23 26 16 10 16 19 26 19 26 32 26 45 55 55
0 0 0 0 0 0 0 0 0 3 13 42 61 68 68 68 52 55 52 52 45 52 65 77 97 97 97 97 90 81 55 29 6 26 29 39 23 23 13 13 16 23 19 16 23 26 29 39 45
0 0 0 0 0 0 0 0 0 0 10 29 55 65 68 58 45 42 35 48 45 48 45 77 94 97 97 94 94 94 84 81 74 61 42 29 19 19 3 10 13 16 13 13 16 19 19 19 39
0 0 0 0 0 0 0 0 0 3 3 13 35 32 26 26 26 23 19 19 26 35 52 55 71 90 90 90 94 100 97 97 90 68 39 35 10 6 10 6 16 10 10 13 10 19 16 16 26
0 0 0 0 0 0 0 0 0 0 0 3 16 16 13 10 13 10 13 13 19 13 16 29 42 55 58 74 81 87 94 87 71 65 45 26 13 3 13 10 10 6 6 6 10 10 10 13 19
0 0 0 0 0 0 0 0 0 0 0 0 0 3 6 3 3 0 0 0 6 6 10 10 19 29 35 48 52 71 81 84 84 94 84 42 35 16 16 13 6 6 6 10 13 16 16 16 13
0 0 0 0 0 0 0 0 0 0 3 0 0 0 0 0 0 0 0 3 3 6 6 6 10 10 13 19 26 32 48 71 81 81 81 65 48 35 23 13 3 3 3 3 16 13 10 13 10
0 0 0 0 0 0 0 0 0 0 0 0 0 0 0 0 0 0 0 0 0 0 0 0 6 6 6 6 6 13 32 45 58 68 65 71 45 39 29 16 10 3 3 10 10 6 10 10 13
0 0 0 0 0 0 0 0 0 0 0 0 0 0 0 0 0 0 0 0 0 0 0 0 0 3 3 3 6 6 10 19 42 42 55 52 42 29 16 16 6 3 3 10 6 3 3 6 10

GEFSSGP_con_cape1000_072.txt.gz
Probability
0 0 0 32 71 71 3 0 0 0 0 0 0 0 0 6 48 42 0 3 71 48 58 100 100 100 100 100 100 100 100 100 97 100 100 94 74 58 48 48 45 45 55 55 58 52 48 55 61
0 0 0 19 48 0 0 0 0 0 0 0 0 0 0 0 3 0 0 29 71 55 42 90 100 100 100 100 100 100 100 100 100 100 100 94 74 61 42 32 26 29 32 35 35 35 35 39 39
0 3 0 13 10 0 0 0 0 0 0 0 0 0 0 0 0 0 6 39 74 52 32 100 100 100 100 100 100 100 100 100 100 100 100 94 81 77 45 35 32 29 26 26 19 19 26 26 26
0 0 0 0 0 0 0 0 0 0 0 0 0 0 0 0 0 0 6 39 58 52 71 100 100 100 100 100 100 100 100 100 100 100 100 100 90 77 65 39 32 23 19 13 10 13 10 13 26
0 0 0 0 0 0 0 0 0 0 0 0 0 0 0 0 0 0 10 16 42 68 84 97 100 100 100 100 100 100 100 100 100 100 100 100 94 90 87 77 71 61 45 29 23 29 23 26 39
0 0 0 0 0 0 0 0 0 0 0 0 0 0 0 0 0 3 6 10 26 87 81 100 100 100 100 100 100 100 100 100 100 100 100 100 100 100 100 97 97 94 84 77 84 81 81 81 81
0 0 0 0 0 0 0 0 0 0 0 0 0 0 0 0 0 3 10 10 26 97 97 90 100 100 100 100 100 100 100 100 100 100 100 100 100 100 100 100 100 100 100 100 100 100 100 100 100
0 0 0 0 0 0 0 0 0 0 0 0 0 0 3 3 3 6 10 10 48 97 100 97 97 100 100 100 100 100 100 100 100 100 100 100 100 100 100 100 100 100 100 100 100 100 100 100 100
0 0 0 0 0 0 0 0 0 0 0 0 6 6 10 3 10 10 10 13 74 94 100 100 100 100 100 100 100 100 100 100 100 100 100 100 100 100 100 100 100 100 100 100 100 100 100 100 100
0 0 0 0 0 0 0 0 0 0 0 0 16 26 16 10 23 19 19 19 39 71 90 100 100 100 100 100 100 100 100 100 100 100 100 100 100 100 100 100 100 100 100 100 100 100 100 100 100
0 0 0 0 0 0 0 0 0 0 0 0 26 32 32 32 48 48 42 42 55 77 94 90 97 100 100 100 100 100 100 100 100 100 100 100 100 100 100 100 100 100 100 100 100 100 100 100 100
0 0 0 0 0 0 0 0 0 0 0 0 10 35 52 71 71 61 65 68 87 90 97 94 100 100 100 100 100 100 100 100 100 100 100 100 100 100 100 100 100 100 100 100 100 100 100 97 94
0 0 0 0 0 0 0 0 0 3 3 0 3 39 48 55 71 74 81 81 90 94 100 100 100 100 100 100 100 97 97 100 100 100 100 100 100 100 100 100 100 100 100 100 100 97 94 94 94
0 0 0 0 0 0 0 0 0 6 6 3 16 32 48 65 71 77 87 87 90 97 97 100 100 100 100 100 100 97 97 100 100 100 100 97 100 100 100 100 100 100 100 100 100 94 94 94 90
0 0 0 0 0 0 0 0 0 3 6 10 13 26 42 61 77 84 87 97 94 97 97 100 100 100 100 100 100 100 100 100 100 100 100 100 100 100 100 100 100 100 100 100 97 97 94 90 87
0 0 0 0 0 0 0 0 3 3 6 10 6 26 35 81 68 87 94 97 97 94 100 100 97 100 100 100 100 100 97 94 94 94 97 97 97 97 97 100 100 100 100 100 100 94 97 97 87
0 0 0 0 0 0 0 0 0 6 3 10 16 23 39 74 77 84 90 87 90 97 100 100 100 100 100 100 97 90 94 94 90 90 97 90 84 90 94 94 94 94 94 97 97 97 97 94 94
0 0 0 0 0 0 0 0 6 3 3 10 19 39 61 74 81 84 84 81 94 97 100 100 100 100 94 97 94 90 84 84 77 87 90 71 65 74 84 71 87 81 84 90 97 97 97 97 97
0 0 0 0 0 0 0 0 6 3 3 13 39 61 71 71 87 81 84 84 84 97 97 100 97 97 97 90 87 87 87 81 77 77 74 52 45 48 55 74 77 71 77 81 71 84 81 84 90
0 0 0 0 0 0 0 0 6 6 3 26 58 65 65 81 81 84 87 87 87 94 90 100 97 87 87 94 94 94 84 74 74 77 68 58 48 45 26 65 58 61 68 71 77 84 84 58 68
0 0 0 0 0 0 0 0 0 6 19 32 45 61 65 65 77 77 77 84 87 87 94 87 94 90 94 97 97 87 94 90 90 81 87 77 45 39 48 45 55 61 58 52 65 58 58 48 55
0 0 0 0 0 0 0 0 0 16 32 29 42 52 55 52 61 58 65 74 77 77 77 90 100 97 97 94 97 90 87 94 84 90 90 87 74 61 45 45 42 58 52 48 45 42 45 45 32
0 0 0 0 0 0 0 0 3 16 26 29 42 35 42 48 42 45 52 65 68 65 77 87 87 87 90 97 94 90 87 94 94 94 94 94 87 81 68 52 52 55 58 55 42 42 52 42 35
0 0 0 0 0 0 0 0 0 13 23 23 39 42 42 35 29 35 39 52 52 55 55 65 87 84 84 84 87 87 90 90 87 87 90 84 90 94 74 55 58 55 55 55 45 35 29 32 39
0 0 0 0 0 0 0 0 13 16 16 29 39 35 26 26 23 29 32 39 32 35 42 48 55 68 71 74 77 84 87 87 90 87 90 90 81 81 81 65 71 58 55 48 48 42 32 29 35
0 0 0 0 0 0 0 0 10 13 26 26 23 13 6 0 6 13 3 10 13 23 23 26 32 42 45 42 52 71 71 77 71 81 77 68 77 84 84 68 61 58 61 32 48 35 32 26 39
0 0 0 0 0 0 0 3 10 0 6 6 3 6 10 3 0 0 0 0 0 6 6 6 16 16 16 16 23 39 29 42 48 61 61 61 65 61 68 74 71 65 55 55 58 23 32 29 26
0 0 0 0 0 0 0 0 10 6 3 0 0 6 3 0 0 0 0 0 0 0 3 6 6 10 13 6 13 3 13 16 23 16 32 52 58 61 58 61 55 71 58 55 48 26 29 29 26
0 0 0 0 0 0 0 0 19 13 10 3 0 0 0 0 0 0 0 0 0 0 0 0 3 3 6 6 10 6 10 10 10 16 13 19 26 48 58 48 42 39 42 35 39 19 26 19 16
0 0 0 0 0 0 0 0 0 3 0 0 0 0 0 0 0 0 0 0 0 0 0 0 0 0 0 3 3 3 10 10 10 6 10 10 16 26 29 39 32 23 13 23 23 23 13 10 6

GEFSSGP_con_cape1000_078.txt.gz
Probability
0 0 0 0 3 23 13 3 0 0 0 0 0 13 16 13 13 0 0 0 13 65 97 100 100 100 100 97 97 100 97 100 100 97 94 97 94 94 94 94 87 84 84 90 90 87 84 90 81
0 0 0 0 3 0 0 0 0 0 0 0 0 0 0 3 6 13 10 10 19 74 97 97 100 100 100 100 97 100 100 100 100 100 100 97 94 87 87 74 74 81 81 77 81 74 74 65 68
0 0 0 0 0 0 0 0 0 0 0 0 0 0 0 3 16 19 16 19 35 77 97 100 100 100 100 100 100 100 100 100 100 100 100 100 97 84 84 77 71 71 61 58 55 55 52 48 48
0 0 0 0 0 0 0 0 0 0 0 0 0 0 0 3 19 26 19 29 35 68 90 100 100 100 100 100 100 100 100 100 100 100 100 100 97 94 90 77 74 74 71 55 52 52 42 48 52
0 0 0 0 0 0 0 0 0 0 0 0 0 0 0 10 45 26 19 19 32 68 94 100 100 100 100 100 100 100 100 100 100 100 100 100 100 97 97 94 90 81 77 77 74 74 68 61 65
0 0 0 0 0 0 0 0 0 0 0 0 0 0 0 29 48 29 16 13 32 71 100 100 100 100 100 100 100 100 100 100 100 100 100 100 100 100 100 100 100 100 100 97 94 90 97 94 87
0 0 0 0 0 0 0 0 0 0 0 0 0 0 0 23 39 35 23 16 26 71 90 100 100 100 100 100 100 100 100 100 100 100 100 100 100 100 100 100 100 100 100 100 100 100 100 100 100
0 0 0 0 0 0 0 0 0 0 0 0 0 0 0 3 16 26 19 32 35 48 84 100 100 100 100 100 100 100 100 100 100 100 100 100 100 100 100 100 100 100 100 100 100 100 100 100 100
0 0 0 0 0 0 0 0 0 0 0 3 0 0 0 3 10 26 58 65 65 52 58 94 100 100 100 100 100 100 100 100 100 100 100 100 100 100 100 100 100 100 100 100 100 100 100 100 100
0 0 0 0 0 0 0 0 0 0 0 3 10 3 3 3 10 39 61 74 71 52 55 71 97 97 100 100 100 100 100 100 100 100 100 100 100 100 100 100 100 100 100 100 100 100 100 100 100
0 0 0 0 0 0 0 0 0 0 0 6 0 3 3 3 6 26 61 81 81 58 52 52 71 81 87 71 87 100 100 100 100 97 100 100 97 97 100 100 100 97 97 100 100 100 100 100 100
0 0 0 0 0 0 0 0 0 0 0 3 3 3 3 3 6 16 32 61 81 84 71 42 52 74 71 74 90 94 94 94 100 97 97 94 94 94 90 84 77 87 90 94 97 100 100 100 97
0 0 0 0 0 0 0 0 3 3 3 6 6 6 10 10 10 10 16 35 68 77 68 68 81 84 81 90 84 90 90 97 97 97 94 94 90 90 90 84 77 87 90 94 94 84 77 87 87
0 0 0 0 0 0 0 0 3 3 6 10 13 10 10 10 6 3 6 10 42 58 71 74 77 87 94 84 87 90 87 90 90 94 87 87 84 84 87 81 77 77 71 81 84 74 74 71 71
0 0 0 0 0 0 0 0 3 3 6 6 19 19 26 16 26 23 19 19 32 45 58 77 87 87 84 87 97 94 87 84 84 87 77 81 84 87 74 65 52 61 71 68 61 52 52 45 45
0 0 0 0 0 0 0 0 3 3 10 10 26 26 32 32 32 39 32 29 32 42 52 77 87 84 84 84 87 81 77 71 71 81 77 68 71 71 58 48 42 55 45 42 39 35 26 26 23
0 0 0 0 0 0 0 0 0 3 13 26 29 45 45 45 45 39 42 35 42 42 61 68 71 77 77 74 74 61 55 61 65 58 58 52 48 35 26 19 23 32 32 19 29 32 29 23 13
0 0 0 0 0 0 0 0 6 19 29 39 52 52 42 42 39 48 48 39 39 42 45 48 58 65 58 52 48 45 32 32 32 35 29 32 32 32 23 26 26 26 19 16 13 16 16 16 13
0 0 0 0 0 0 3 6 13 16 26 32 35 39 35 35 29 26 32 35 35 29 29 29 35 45 32 39 39 29 23 23 16 26 29 32 26 26 23 19 10 10 13 10 16 13 10 10 3
0 0 0 0 0 0 10 10 16 16 26 29 39 39 39 29 29 26 23 26 29 32 26 23 26 32 29 32 29 29 16 16 10 10 13 19 23 19 16 13 13 13 16 10 6 13 10 6 3
0 0 0 0 0 0 0 6 13 19 16 23 26 29 29 26 26 29 26 19 26 23 26 26 13 16 29 26 26 19 10 16 13 10 6 13 6 6 10 3 6 10 10 6 6 6 3 0 0
0 0 0 0 0 0 0 0 3 16 16 19 16 13 13 10 3 0 3 0 10 13 23 19 13 6 10 10 23 35 29 19 13 10 3 3 6 10 6 6 3 3 3 3 0 0 0 0 0
0 0 0 0 0 0 0 0 3 3 10 6 3 6 3 3 3 0 0 3 3 3 3 6 10 10 10 6 6 10 6 16 10 13 10 6 10 0 0 3 3 6 3 0 0 0 0 0 0
0 0 0 0 0 0 0 0 0 3 6 0 0 0 0 0 0 0 0 0 0 0 0 3 3 6 6 3 3 3 3 3 6 6 6 10 6 3 0 3 3 3 6 3 0 0 0 0 0
0 0 0 0 0 0 0 0 0 3 3 0 0 0 0 0 0 0 0 0 0 0 0 0 0 3 3 3 3 3 3 3 6 3 6 3 3 3 3 3 0 0 0 6 3 3 3 0 0
0 0 0 0 0 0 0 0 0 0 0 3 0 0 0 0 0 0 0 0 0 0 0 0 0 0 0 3 3 3 3 3 3 3 3 3 3 0 0 0 0 0 3 3 0 3 0 3 3
0 0 0 0 0 0 0 0 0 3 3 0 0 0 0 0 0 0 0 0 0 0 0 0 0 0 0 0 0 0 0 0 3 0 0 0 0 0 0 0 0 0 0 0 0 0 0 0 0
0 0 0 0 0 0 0 0 0 0 0 0 0 0 0 0 0 0 0 0 0 0 0 0 0 0 0 0 0 0 0 0 0 0 0 0 0 0 0 0 0 0 0 0 0 0 0 0 0
0 0 0 0 0 0 0 0 0 0 0 0 0 0 0 0 0 0 0 0 0 0 0 0 0 0 0 0 0 0 0 0 0 0 0 0 0 0 0 0 0 0 0 0 0 0 0 0 0
0 0 0 0 0 0 0 0 0 0 0 0 0 0 0 0 0 0 0 0 0 0 0 0 0 0 0 0 0 0 0 0 0 0 0 0 0 0 0 0 0 0 0 0 0 0 0 0 0

GEFSSGP_con_cape1000_084.txt.gz
Probability
0 0 0 0 0 0 0 0 0 0 0 0 0 0 0 0 0 0 0 0 0 32 77 100 100 100 97 90 90 87 100 100 100 100 100 100 100 100 100 100 100 97 94 90 90 84 81 81 81
0 0 0 0 0 0 0 0 0 0 0 0 0 0 0 10 10 0 0 0 3 65 87 100 100 100 100 94 90 87 100 100 100 100 100 100 100 100 100 100 100 97 94 87 84 77 77 81 81
0 0 0 0 0 0 0 0 0 0 0 0 0 0 0 13 10 0 0 3 26 71 87 97 100 100 100 97 97 94 97 100 100 100 100 100 100 100 97 97 97 97 94 90 84 77 74 84 84
0 0 0 0 0 0 0 0 0 0 0 0 0 0 0 29 13 6 3 26 61 81 87 97 100 100 100 100 100 100 100 97 100 100 100 100 100 100 97 97 97 97 94 90 81 74 74 84 84
0 0 0 0 0 0 0 0 0 0 0 0 0 0 3 29 19 16 23 35 65 81 81 100 100 100 100 100 100 100 100 100 100 100 100 100 100 100 100 100 100 100 100 100 90 84 84 81 81
0 0 0 0 0 0 0 0 0 0 0 0 0 0 10 35 29 23 29 35 71 84 84 100 100 100 100 100 100 100 100 100 100 100 100 100 100 100 100 100 100 100 100 100 100 100 100 100 97
0 0 0 0 0 0 0 0 0 0 0 0 0 3 16 45 32 29 29 45 71 90 90 100 100 100 100 100 100 100 100 100 100 100 100 100 100 100 100 100 100 100 100 100 100 100 100 100 100
0 0 0 0 0 0 0 0 0 0 0 0 0 3 10 39 29 23 29 48 71 87 94 100 100 100 100 100 100 100 100 100 100 100 100 100 100 100 100 100 100 100 100 100 100 100 100 100 100
0 0 0 0 0 0 0 0 0 0 0 0 0 0 6 35 26 29 39 52 71 94 100 100 100 100 100 100 100 100 100 100 100 100 100 100 100 100 100 100 100 100 100 100 100 100 100 100 100
0 0 0 0 0 0 0 0 0 0 0 3 3 6 29 52 32 32 42 48 55 77 100 100 100 100 100 100 100 100 100 100 100 100 100 100 100 100 100 100 100 100 100 100 100 100 100 100 100
0 0 0 0 0 0 0 0 0 0 0 0 0 10 48 61 48 45 35 42 48 52 77 100 100 100 100 100 100 100 100 100 100 100 100 100 100 97 97 97 97 97 100 100 97 100 100 100 100
0 0 0 0 0 0 0 0 0 0 0 0 3 10 39 61 65 55 45 42 35 39 58 81 100 100 97 90 90 90 100 100 100 100 100 100 97 97 97 97 97 94 90 84 90 94 94 97 97
0 0 0 0 0 0 0 0 0 3 0 3 3 16 35 42 55 58 61 52 39 39 35 48 81 84 84 81 65 81 90 94 94 97 97 97 94 90 87 87 81 71 71 74 74 74 84 87 90
0 0 0 0 0 0 0 0 0 3 6 3 10 13 23 32 26 39 61 65 61 48 42 39 48 58 68 68 65 61 71 84 84 84 87 87 84 84 77 68 61 55 52 52 58 65 68 71 77
0 0 0 0 0 0 0 3 10 6 6 6 16 19 19 16 23 29 32 42 58 55 48 35 39 39 42 45 45 58 58 61 71 77 81 81 77 61 61 61 48 42 29 29 26 35 35 39 48
0 0 0 0 0 0 0 6 10 10 13 13 13 19 19 23 23 29 39 39 39 39 45 39 42 32 35 39 45 42 52 58 58 58 68 58 48 58 48 42 26 23 19 19 13 13 16 19 26
0 0 0 0 0 0 6 6 16 16 16 23 23 23 19 19 26 19 26 26 35 26 26 29 32 39 35 32 26 32 29 39 39 42 45 52 42 39 42 23 16 16 13 13 13 10 10 10 10
0 0 0 0 0 3 6 16 19 19 26 23 29 19 16 16 10 16 23 26 19 23 16 19 29 26 23 26 23 19 23 23 29 29 26 29 26 32 23 13 10 10 13 13 3 10 0 6 6
0 0 0 0 0 10 10 19 13 16 19 23 19 10 13 19 6 10 16 16 13 16 19 23 19 19 23 23 19 16 16 16 13 16 16 19 19 16 13 10 10 10 13 10 3 3 3 6 3
0 0 0 0 6 10 13 10 13 13 23 19 16 16 13 10 10 13 10 6 19 10 13 10 10 16 16 16 10 10 6 6 10 10 13 13 13 16 10 10 3 6 6 3 3 6 6 0 0
0 0 0 0 0 3 3 6 10 16 10 6 10 10 6 10 13 3 10 6 6 6 3 3 0 0 0 0 6 6 0 0 0 0 0 3 10 13 13 6 6 6 6 6 6 6 6 3 0
0 0 0 0 0 0 0 0 6 10 10 6 6 6 3 3 3 3 0 0 0 6 0 0 0 0 0 0 0 0 0 0 0 0 0 0 0 0 3 3 3 3 3 3 3 3 6 3 3
0 0 0 0 0 0 0 0 0 0 6 6 3 3 3 3 0 0 0 0 0 0 0 0 3 3 3 0 0 0 0 0 0 0 0 0 0 0 0 0 0 0 0 0 0 0 0 0 0
0 0 0 0 0 0 0 0 0 0 3 0 0 0 0 0 0 0 0 0 0 0 0 0 0 3 3 0 0 0 0 0 0 0 0 0 0 0 0 0 0 0 0 0 0 0 0 0 0
0 0 0 0 0 0 0 0 0 0 3 0 0 0 0 0 0 0 0 0 0 0 0 0 0 0 0 0 0 0 0 0 0 0 0 0 0 0 0 0 0 0 0 0 0 0 0 0 0
0 0 0 0 0 0 0 0 0 0 0 0 0 0 0 0 0 0 0 0 0 0 0 0 0 0 0 0 0 0 0 0 0 0 0 0 0 0 0 0 0 0 0 0 0 0 0 0 0
0 0 0 0 0 0 0 0 0 0 0 0 0 0 0 0 0 0 0 0 0 0 0 0 0 0 0 0 0 0 0 0 0 0 0 0 0 0 0 0 0 0 0 0 0 0 0 0 0
0 0 0 0 0 0 0 0 0 0 0 0 0 0 0 0 0 0 0 0 0 0 0 0 0 0 0 0 0 0 0 0 0 0 0 0 0 0 0 0 0 0 0 0 0 0 0 0 0
0 0 0 0 0 0 0 0 0 0 0 0 0 0 0 0 0 0 0 0 0 0 0 0 0 0 0 0 0 0 0 0 0 0 0 0 0 0 0 0 0 0 0 0 0 0 0 0 0
0 0 0 0 0 0 0 0 0 0 0 0 0 0 0 0 0 0 0 0 0 0 0 0 0 0 0 0 0 0 0 0 0 0 0 0 0 0 0 0 0 0 0 0 0 0 0 0 0

GEFSSGP_con_cape1000_090.txt.gz
Probability
16 3 3 10 52 45 3 0 0 0 0 0 0 0 0 0 0 19 61 23 10 32 90 97 100 97 100 100 100 100 100 100 100 100 100 100 100 97 97 97 100 94 90 90 84 77 87 87 87
10 0 3 35 48 3 0 0 0 0 0 0 0 0 0 6 19 45 55 32 16 39 90 94 100 97 100 100 100 100 100 100 100 100 100 100 100 100 100 100 97 94 87 87 81 65 74 87 87
0 0 13 32 13 0 0 0 0 0 0 0 0 0 0 16 29 39 45 32 26 58 94 94 100 100 100 100 100 100 100 100 100 100 100 100 100 100 100 97 94 94 87 84 74 65 61 87 87
0 0 6 13 3 0 0 0 0 0 0 0 0 0 10 45 35 29 52 23 32 61 94 100 100 100 100 100 100 100 100 100 100 100 100 100 100 100 97 94 97 94 87 87 81 71 68 77 84
0 0 3 0 0 0 0 0 0 0 0 0 0 0 10 74 52 35 68 39 45 58 84 100 100 100 100 100 100 100 100 100 100 100 100 100 100 100 100 100 100 100 94 87 81 84 77 84 87
0 0 0 0 0 0 0 0 0 0 0 0 0 0 39 84 68 42 55 58 35 58 71 100 100 100 100 100 100 100 100 100 100 100 100 100 100 100 100 100 100 100 100 97 97 90 87 90 94
0 0 0 0 0 0 0 0 0 0 0 0 0 0 55 84 87 61 77 68 45 45 68 100 100 100 100 100 100 100 100 100 100 100 100 100 100 100 100 100 100 100 100 100 100 100 100 97 100
0 0 0 0 0 0 0 0 0 0 0 0 3 3 29 94 87 90 94 84 58 61 68 100 100 100 100 100 100 97 97 97 100 100 100 100 97 97 97 100 100 100 100 100 100 100 100 100 100
0 0 0 0 0 0 0 0 0 0 3 6 10 23 58 100 100 97 100 100 100 97 97 100 100 100 100 94 97 97 97 97 97 100 97 97 94 71 97 97 97 100 100 100 100 100 100 100 97
0 0 0 0 0 0 0 0 0 3 6 6 29 65 97 100 100 100 100 100 100 100 100 100 100 100 100 94 97 97 97 97 97 100 100 97 97 94 84 94 94 97 100 100 100 100 100 100 100
0 0 0 0 0 0 0 0 0 0 6 19 23 48 90 100 100 100 97 97 97 100 100 100 100 100 100 100 97 97 97 97 97 100 100 97 97 97 90 90 94 97 100 100 100 100 100 100 100
0 0 0 0 0 0 0 0 3 13 16 32 35 42 87 100 100 100 97 97 94 100 100 100 100 100 100 100 97 97 97 97 97 100 100 100 100 94 90 97 90 90 97 100 100 100 97 97 94
0 0 0 0 0 0 0 3 3 10 29 42 45 52 71 87 94 94 97 97 97 100 100 100 100 100 100 100 100 97 97 97 97 100 100 100 97 94 94 94 94 94 94 87 94 90 90 87 87
0 0 0 0 0 0 0 3 3 26 45 55 68 68 74 81 87 94 97 97 97 97 97 100 100 100 100 97 94 94 94 97 100 97 97 90 90 87 87 90 90 87 84 87 90 84 87 87 77
0 0 0 0 0 0 0 6 23 35 48 58 68 71 74 81 90 90 90 94 94 94 90 94 90 90 87 87 84 84 84 77 81 84 74 77 71 77 71 71 84 81 81 87 87 81 84 90 87
0 0 0 0 0 0 0 3 35 42 55 65 71 74 74 71 74 84 84 87 90 90 87 77 77 77 84 84 84 77 71 74 68 71 65 65 68 65 71 71 68 77 68 74 68 65 71 74 74
0 0 0 0 0 0 0 16 42 48 55 55 55 68 71 68 77 74 84 81 74 81 81 77 77 74 74 84 81 71 68 55 58 48 48 55 58 55 58 55 58 52 58 52 55 45 52 58 58
0 0 0 0 3 6 19 29 39 48 52 55 55 65 68 68 68 71 68 61 65 58 65 61 71 74 65 61 71 65 58 58 48 42 52 45 48 45 55 52 55 55 52 55 52 55 58 65 48
0 0 0 3 10 29 32 39 42 55 58 58 58 58 61 68 68 58 52 48 48 55 52 48 58 52 61 61 65 61 52 52 52 39 39 32 35 42 55 35 45 52 39 48 45 39 29 32 29
0 0 0 10 16 23 29 39 48 58 58 58 61 61 61 55 48 48 52 48 52 52 45 39 45 52 55 58 65 52 58 45 23 23 26 23 26 39 29 42 42 42 52 55 42 45 23 16 19
0 0 0 6 19 23 23 26 52 55 48 55 48 52 45 35 42 39 39 42 32 35 35 26 39 35 45 45 45 42 55 45 26 29 29 35 23 23 32 35 42 58 55 45 52 58 45 19 16
0 0 0 3 6 6 13 3 42 39 45 48 42 39 32 23 23 16 16 13 16 23 19 23 29 29 42 35 32 35 32 26 23 26 32 16 13 10 19 35 32 52 42 48 39 19 26 26 23
0 0 0 0 0 0 0 0 35 42 39 32 26 23 16 13 6 13 10 10 6 10 10 10 19 26 32 29 35 32 23 16 13 19 19 16 19 16 13 23 32 45 42 52 45 35 45 32 23
0 0 0 0 0 0 0 0 29 45 39 32 19 16 16 10 6 10 10 10 10 6 6 6 13 10 16 19 16 23 19 16 6 10 6 10 13 19 16 13 16 23 26 29 39 35 39 55 55
0 0 0 0 0 0 0 0 48 42 29 26 19 23 13 10 6 10 6 3 3 3 3 3 3 10 6 3 3 3 6 3 6 10 6 3 6 6 6 3 10 10 13 19 29 39 39 39 52
0 0 0 0 0 0 0 0 35 19 16 3 3 3 0 0 0 0 0 0 0 0 0 0 3 3 3 0 0 0 3 0 0 3 3 3 0 0 0 0 0 3 3 0 10 16 26 39 45
0 0 0 0 0 0 0 13 23 6 0 0 0 0 0 0 0 0 0 0 0 0 0 0 0 0 0 0 0 0 0 0 0 0 3 0 3 0 0 0 0 0 0 0 0 0 13 16 29
0 0 0 0 0 0 0 0 3 3 0 0 0 0 0 0 0 0 0 0 0 0 0 0 0 0 0 0 0 0 0 0 0 0 0 0 3 3 0 0 0 0 0 0 0 0 0 6 13
0 0 0 0 0 0 0 3 0 0 0 0 0 0 0 0 0 0 0 0 0 0 0 0 0 0 0 0 0 0 0 0 0 0 0 3 3 0 0 0 0 0 0 0 0 0 0 0 0
0 0 0 0 0 0 0 0 0 0 0 0 0 0 0 0 0 0 0 0 0 0 0 0 0 0 0 0 0 0 0 0 0 0 3 0 3 0 0 0 0 0 0 0 0 0 0 0 0

GEFSSGP_con_cape1000_096.txt.gz
Probability
10 6 6 16 48 71 23 3 0 0 0 0 0 0 0 6 16 65 68 23 71 87 90 100 100 100 100 100 100 100 100 100 100 100 100 100 100 97 94 94 94 74 84 94 87 94 90 90 94
3 6 23 45 68 48 3 3 0 0 0 0 0 0 3 6 6 39 45 35 87 84 77 94 100 100 100 100 100 100 100 100 100 100 100 100 100 100 97 94 87 84 84 81 74 71 81 87 87
16 19 29 61 84 26 3 0 0 0 0 0 0 0 13 13 10 42 55 45 87 84 77 100 100 100 100 100 100 100 100 100 100 100 100 100 100 100 97 97 90 84 81 77 61 65 81 87 87
35 35 29 55 45 3 3 0 0 0 0 0 0 10 29 16 23 55 48 45 87 84 90 100 100 100 100 100 100 100 100 100 100 100 100 100 100 100 100 97 90 90 84 77 68 61 71 81 84
29 29 42 42 3 3 0 0 0 0 0 0 3 32 52 29 19 26 39 45 84 81 94 97 100 100 100 100 100 100 100 100 100 100 100 100 100 100 100 97 94 94 87 77 71 74 68 71 77
23 16 13 3 0 0 0 0 0 0 0 0 0 39 61 32 19 19 26 45 81 97 97 100 100 100 100 100 100 100 100 100 100 100 100 100 100 100 100 100 94 94 90 90 84 81 81 84 87
10 10 3 3 0 0 0 0 0 0 0 0 0 35 74 35 23 19 29 52 77 97 100 100 100 100 100 100 100 100 100 100 100 100 100 100 100 97 97 97 97 97 97 94 94 87 94 97 100
6 6 3 0 0 0 0 0 0 0 0 3 6 39 84 58 35 35 29 45 81 100 100 100 100 100 100 100 100 100 100 100 100 100 100 100 97 97 97 97 97 97 97 97 97 97 97 97 100
3 0 0 0 0 0 0 0 0 0 3 10 16 39 71 71 65 55 48 48 87 100 100 100 100 100 100 100 100 100 100 100 100 100 100 97 97 97 97 97 97 97 97 97 97 97 97 100 100
0 0 0 0 0 0 0 0 0 3 16 19 29 39 48 71 74 81 74 65 65 87 100 100 100 100 97 100 100 100 100 100 100 100 100 100 97 97 94 97 97 97 97 97 97 97 97 100 100
0 0 0 0 0 0 0 0 0 6 23 26 39 42 52 71 81 94 87 84 90 94 100 100 100 100 100 100 100 100 100 100 100 100 100 100 100 97 87 97 97 97 97 97 94 94 94 94 94
0 0 0 0 0 0 0 0 3 10 23 35 45 52 55 65 84 90 94 90 94 100 100 100 100 100 100 100 100 100 100 100 100 97 97 100 97 94 97 97 97 97 87 90 90 90 90 90 84
0 0 0 0 0 0 0 3 6 16 32 42 52 68 77 84 81 90 94 94 97 94 97 97 97 97 97 97 97 100 100 100 100 97 97 94 90 87 87 84 87 84 90 90 87 87 84 81 77
0 0 0 0 0 0 0 3 10 23 35 48 65 81 94 94 94 94 94 90 90 97 97 97 97 97 97 97 97 100 100 97 97 94 90 87 90 84 81 81 81 84 87 87 84 84 77 77 77
0 0 0 0 0 0 0 3 10 29 42 55 65 81 90 97 97 97 94 94 97 97 97 97 97 97 97 97 97 94 94 90 90 90 94 90 84 84 84 74 74 81 87 84 87 77 81 71 68
0 0 0 0 0 0 0 6 23 29 42 61 74 87 87 87 87 90 90 87 87 90 94 94 87 90 90 94 87 81 87 94 90 84 81 74 74 74 71 71 71 68 74 71 74 74 68 68 65
0 0 0 0 0 0 0 10 32 35 52 68 71 81 81 81 77 74 77 87 90 90 87 84 87 84 87 87 90 94 100 90 84 74 68 58 55 55 61 61 61 61 68 61 48 55 58 58 52
0 0 0 0 0 3 10 29 39 45 61 65 74 74 77 81 71 71 71 71 81 77 77 77 81 84 81 84 97 94 84 87 74 61 55 42 42 35 42 39 48 48 48 48 52 48 52 48 45
0 0 0 0 3 6 19 26 35 52 68 68 74 74 71 74 68 61 58 65 65 74 77 77 77 81 84 84 84 81 81 77 77 68 52 39 32 26 26 29 39 29 35 35 35 42 42 29 29
0 0 0 0 0 3 19 32 42 52 58 65 61 61 55 55 58 58 55 58 55 68 71 65 71 74 77 74 77 81 71 71 52 42 48 42 32 35 13 26 23 26 23 23 29 32 39 32 23
0 0 0 0 0 3 16 26 29 29 39 42 45 45 32 35 35 39 35 35 29 39 45 45 65 68 71 74 61 48 58 61 48 45 45 35 26 23 19 19 19 23 16 13 26 32 32 29 26
0 0 0 0 0 0 10 10 32 16 23 26 26 29 29 23 23 19 16 19 16 26 29 32 48 58 65 61 52 45 35 26 29 32 32 32 23 19 16 16 13 26 26 23 26 23 35 23 13
0 0 0 0 0 0 0 0 3 10 16 23 23 26 29 19 16 16 16 13 10 10 13 23 48 48 58 55 48 52 35 32 23 32 29 32 29 19 13 16 16 19 19 23 23 26 13 13 10
0 0 0 0 0 0 0 0 0 16 16 16 19 23 23 13 13 13 16 13 16 13 10 16 32 42 48 48 48 52 42 42 35 35 29 26 19 10 10 13 23 23 16 10 13 10 16 19 23
0 0 0 0 0 0 0 0 10 13 10 6 13 10 3 6 6 6 6 6 10 13 13 13 23 23 19 26 35 39 48 42 23 13 10 19 13 13 16 3 16 16 19 10 13 10 3 13 10
0 0 3 0 0 0 0 3 6 6 10 3 0 0 0 0 0 0 3 6 6 6 3 3 6 13 19 16 19 23 16 6 0 0 3 3 3 3 13 6 10 10 3 3 6 6 0 0 10
0 0 0 0 0 0 0 16 0 10 0 0 0 0 0 0 0 0 0 0 3 3 3 0 6 6 6 10 10 10 6 6 0 6 6 3 3 0 0 0 0 0 0 0 3 3 0 0 0
0 0 0 0 3 0 0 6 10 3 0 0 0 0 0 0 0 0 0 0 0 0 3 3 3 3 3 3 6 0 3 0 3 3 0 0 0 0 3 3 0 0 0 0 0 3 0 0 0
0 0 0 0 3 0 0 3 3 3 0 0 0 0 0 0 0 0 0 0 0 0 0 0 0 3 3 3 0 0 0 3 3 3 0 0 0 0 0 0 0 0 0 0 0 0 0 0 0
0 0 0 0 0 0 0 0 0 0 0 0 0 0 0 0 0 0 0 0 0 0 0 0 0 0 0 0 0 0 0 0 3 0 0 0 0 0 0 0 3 0 0 0 0 0 0 0 0

GEFSSGP_con_cape1000_102.txt.gz
Probability
35 13 6 6 6 13 10 3 3 0 0 0 0 10 23 55 58 35 16 35 42 81 100 100 100 100 100 100 100 100 100 100 100 100 100 100 100 100 100 100 100 100 100 97 97 97 97 97 100
6 6 3 3 10 10 6 3 0 0 0 0 3 3 13 35 52 39 35 45 65 84 100 100 100 100 100 100 100 100 100 100 100 100 100 100 100 100 100 100 97 100 100 97 94 94 90 94 94
3 3 6 10 16 13 6 6 3 3 0 0 3 6 10 19 42 48 32 52 68 77 94 100 100 100 100 100 100 100 100 100 100 100 100 100 100 100 100 100 97 97 97 94 90 90 90 90 90
3 10 10 13 13 16 13 6 0 0 0 3 3 10 3 10 52 74 52 55 74 81 94 100 100 100 100 100 100 100 100 100 100 100 100 100 100 100 100 100 97 97 97 94 94 90 90 90 87
3 13 19 16 16 13 10 13 3 0 3 10 6 6 3 32 77 71 55 45 65 84 97 100 100 100 100 100 100 100 100 100 100 100 100 100 100 100 100 100 100 100 100 100 97 97 97 94 94
10 10 13 6 3 6 0 3 0 6 6 10 16 6 0 29 71 71 65 52 74 87 97 100 100 100 100 100 100 100 100 100 100 100 100 100 100 100 100 100 100 100 100 100 100 97 97 97 97
10 10 6 3 3 0 0 0 3 3 13 16 16 13 3 23 48 71 71 71 84 90 94 100 100 100 100 100 100 100 100 100 100 100 100 100 100 100 100 100 100 100 100 100 100 100 100 100 100
6 6 6 0 0 0 0 3 10 10 23 16 26 16 13 6 32 68 77 87 90 90 90 97 100 100 100 100 100 100 100 100 100 100 100 100 100 100 100 100 100 97 97 97 100 100 100 100 100
6 6 6 0 0 0 0 0 13 19 39 52 45 35 16 10 32 58 65 87 87 90 90 97 97 97 100 100 100 100 100 100 100 100 100 100 100 100 100 97 97 97 97 97 97 97 97 100 100
3 6 3 0 0 0 3 10 10 32 39 55 45 55 45 35 45 58 71 84 87 87 90 94 94 97 97 100 100 100 100 100 97 97 97 97 94 94 97 97 97 97 97 97 97 97 97 97 100
3 0 0 0 0 0 10 16 26 26 39 55 58 65 61 55 55 52 74 77 77 77 84 84 90 97 97 97 100 100 100 97 94 94 94 90 81 87 90 87 97 97 97 97 97 97 97 97 90
0 0 0 0 0 0 10 16 29 48 58 61 65 65 68 68 74 68 71 68 74 81 77 74 87 84 90 97 100 97 97 90 90 90 90 87 84 74 71 71 84 90 90 84 87 90 90 90 90
0 0 0 0 3 6 10 23 35 55 61 71 71 74 68 65 68 68 58 71 65 65 68 77 77 84 77 84 87 87 90 84 87 84 81 74 71 61 65 52 58 68 77 74 71 71 74 68 74
0 0 0 0 3 6 16 19 35 52 71 74 74 71 65 58 58 52 55 65 61 58 65 68 68 68 71 74 81 81 74 71 77 68 61 58 52 48 39 39 35 35 48 55 55 55 55 55 48
0 0 0 0 3 6 13 23 35 52 65 58 61 68 61 58 55 52 61 55 52 55 52 55 52 52 61 58 58 61 58 55 32 32 39 42 42 42 32 26 19 19 26 32 39 35 35 32 32
0 0 0 0 6 6 16 26 39 45 61 58 58 52 52 45 52 48 42 42 39 42 42 45 42 39 42 45 45 39 39 26 26 16 16 16 19 16 13 13 10 13 16 16 23 26 23 23 13
0 0 0 3 10 13 16 29 29 35 48 55 45 39 35 42 45 45 45 35 39 39 39 32 35 35 35 32 29 23 23 19 16 23 23 19 13 16 10 10 6 16 6 6 10 6 3 3 6
0 0 3 3 10 16 26 32 32 35 29 35 39 39 39 32 35 35 39 35 23 19 23 23 19 23 29 26 19 13 10 3 10 16 13 10 6 6 3 3 3 3 3 6 6 6 6 6 3
0 0 0 6 10 23 29 19 13 19 23 19 19 19 35 29 23 26 35 35 29 19 16 16 16 19 19 13 16 10 10 6 3 3 10 3 3 3 3 3 3 3 3 3 3 3 3 3 3
0 0 0 3 19 16 6 6 6 13 10 13 13 26 23 23 19 26 26 19 23 16 10 10 10 16 13 10 6 3 6 6 3 3 3 3 3 3 3 3 3 3 3 3 3 3 3 3 3
0 0 0 6 10 6 3 0 0 3 3 6 10 13 19 23 16 13 16 13 13 6 6 13 10 10 10 10 6 6 3 3 3 3 3 3 3 3 3 3 3 3 3 3 3 3 3 3 3
0 0 0 0 0 0 3 0 0 3 3 6 10 6 13 6 10 10 10 13 10 10 10 10 6 10 6 3 6 0 3 3 3 3 3 3 3 3 3 3 3 3 3 3 3 3 0 0 0
0 0 0 0 0 0 0 0 0 0 0 10 6 0 0 6 3 3 10 10 6 6 10 3 3 0 3 0 0 0 0 0 0 0 0 3 0 3 0 0 0 0 0 3 3 0 0 0 0
0 0 0 0 0 0 0 0 0 0 0 3 3 0 0 0 0 0 3 3 3 0 3 0 0 0 0 0 0 0 0 0 0 0 0 0 0 0 0 0 0 0 0 0 0 0 0 0 0
0 0 0 0 0 0 0 0 0 0 3 3 0 0 0 0 0 0 0 0 0 0 0 0 0 0 0 0 0 0 0 0 0 0 0 0 0 0 0 0 0 0 0 0 0 0 0 0 0
0 0 0 0 0 0 0 0 0 0 3 0 0 0 0 0 0 0 0 0 0 0 0 0 0 0 0 0 0 0 0 0 0 0 0 0 0 0 0 0 0 0 0 0 0 0 0 0 0
0 0 0 0 0 0 0 0 0 0 0 0 0 0 0 0 0 0 0 0 0 0 0 0 0 0 0 0 0 0 0 0 0 0 0 0 0 0 0 0 0 0 0 0 0 0 0 0 0
0 0 0 0 0 0 0 0 0 0 0 0 0 0 0 0 0 0 0 0 0 0 0 0 0 0 0 0 0 0 0 0 0 0 0 0 0 0 0 0 0 0 0 0 0 0 0 0 0
0 0 0 0 0 0 0 0 0 0 0 0 0 0 0 0 0 0 0 0 0 0 0 0 0 0 0 0 0 0 0 0 0 0 0 0 0 0 0 0 0 0 0 0 0 0 0 0 0
0 0 0 0 0 0 0 0 0 0 0 0 0 0 0 0 0 0 0 0 0 0 0 0 0 0 0 0 0 0 0 0 0 0 0 0 0 0 0 0 0 0 0 0 0 0 0 0 0

GEFSSGP_con_cape1000_108.txt.gz
Probability
45 23 6 3 6 3 0 0 3 3 0 0 3 13 26 39 29 13 6 29 52 97 100 100 100 100 100 100 100 100 100 100 100 100 100 100 100 100 100 100 100 100 100 100 100 100 100 100 100
23 6 3 6 6 0 0 0 0 0 0 0 3 10 19 52 32 32 35 55 81 100 100 100 100 100 100 100 100 100 100 100 100 100 100 100 100 100 100 100 100 100 100 97 97 97 100 100 100
6 6 6 6 6 0 0 0 0 0 3 3 0 3 10 42 42 45 45 65 90 100 100 100 100 100 100 100 100 100 100 100 100 100 100 100 100 100 100 100 100 100 100 97 94 97 97 100 100
3 6 6 6 6 3 6 0 3 0 0 3 0 6 6 55 68 48 61 81 97 100 100 100 100 100 100 100 100 100 100 100 100 100 100 100 100 100 100 100 100 100 100 97 94 94 97 100 100
0 6 10 10 3 3 10 3 0 0 3 3 6 3 23 61 65 68 74 87 97 100 100 100 100 100 100 100 100 100 100 100 100 100 100 100 100 100 100 100 100 100 97 97 97 97 97 97 97
3 13 10 3 0 0 0 0 0 3 3 3 3 3 35 61 65 71 81 90 100 100 100 100 100 100 100 100 100 100 100 100 100 100 100 100 100 100 100 100 100 100 97 97 97 97 97 97 97
6 6 3 3 3 0 0 0 6 6 19 32 19 10 35 71 61 65 84 87 97 100 100 100 100 100 100 100 100 100 100 100 100 100 100 100 100 100 100 100 100 100 100 100 97 97 97 97 97
6 6 6 6 3 0 0 0 16 19 19 29 23 23 32 71 61 71 81 87 94 94 97 97 97 100 100 100 100 97 97 97 97 97 100 100 100 100 100 100 100 100 100 100 100 100 100 100 100
6 6 6 0 3 0 0 3 16 32 29 48 61 52 48 74 77 87 84 84 90 94 94 94 97 97 97 97 97 97 97 97 97 97 97 97 97 97 100 100 100 100 100 100 100 100 100 100 100
3 6 6 3 3 0 3 16 26 32 42 52 68 74 74 77 84 87 90 90 87 94 94 87 90 90 90 90 97 94 94 94 94 94 94 90 94 94 94 90 97 97 97 97 100 100 97 97 97
3 3 3 3 0 0 10 10 29 42 61 58 68 81 77 81 84 81 81 77 74 77 84 77 81 87 90 90 87 94 94 94 94 94 87 87 87 87 87 90 90 90 94 94 94 97 97 97 97
3 3 3 0 3 13 16 23 42 61 65 61 65 74 77 74 68 65 61 61 55 61 65 74 74 77 77 84 84 90 94 94 94 87 94 81 81 77 74 77 77 81 84 84 87 87 84 84 84
0 0 0 3 6 13 29 45 55 68 68 58 55 61 61 65 61 58 61 55 45 52 52 55 58 71 74 77 77 84 77 87 81 77 71 65 65 68 61 61 58 61 65 68 68 74 71 77 77
0 0 3 6 10 29 35 32 42 58 55 52 55 58 58 52 55 52 48 52 52 48 52 48 48 58 55 52 55 55 65 65 61 52 52 55 58 58 52 48 45 42 45 48 58 65 65 58 58
0 0 6 10 13 23 32 42 52 45 39 35 39 45 45 45 48 39 42 35 35 39 45 52 48 48 45 45 35 35 29 23 23 29 26 29 29 35 35 35 32 29 29 35 35 35 32 32 35
0 0 0 6 10 23 42 39 35 35 32 32 35 32 39 39 35 26 23 16 13 23 26 26 35 32 13 13 13 16 10 6 6 6 10 16 16 26 19 16 16 16 10 13 13 23 23 23 23
0 0 0 3 16 29 39 39 35 19 19 23 23 16 29 26 26 23 16 19 16 13 10 13 19 13 13 6 6 6 10 6 6 6 6 6 6 6 6 6 3 3 3 3 10 13 13 16 13
0 3 10 13 29 32 35 32 26 13 13 13 10 13 16 19 23 23 19 19 16 10 10 6 3 6 6 6 6 6 6 6 3 3 3 3 3 3 3 3 3 3 3 3 3 3 3 6 6
3 3 13 16 29 32 29 23 10 6 10 16 13 10 10 13 19 19 16 13 10 6 6 6 3 3 0 3 3 3 3 3 3 3 3 3 3 3 3 3 3 3 3 3 3 3 3 3 3
6 3 6 13 19 16 16 6 3 6 6 6 13 13 13 13 13 13 6 3 3 6 6 6 3 3 3 0 0 3 3 3 3 3 3 3 3 3 3 3 3 3 3 3 3 3 3 3 3
0 0 3 10 3 3 6 6 6 3 3 3 6 10 6 3 6 6 3 0 0 0 0 0 0 0 0 0 0 0 0 0 3 3 3 3 3 3 3 3 3 3 3 3 3 3 3 3 3
0 0 3 0 0 0 0 0 0 3 3 3 6 6 0 0 0 0 0 0 0 0 0 0 0 0 0 0 0 0 0 0 0 0 0 0 3 3 3 0 0 0 3 3 3 3 3 3 3
0 0 0 0 0 0 0 0 0 0 0 0 3 0 0 0 0 0 0 0 0 0 0 0 0 0 0 0 0 0 0 0 0 0 0 0 0 0 3 3 3 0 3 3 3 0 0 3 3
0 0 0 0 0 0 0 0 0 0 0 0 0 0 0 0 0 0 0 0 0 0 0 0 0 0 0 0 0 0 0 0 0 0 0 0 0 0 0 0 0 0 0 0 0 0 0 0 0
0 0 0 0 0 0 0 0 0 0 0 0 0 0 0 0 0 0 0 0 0 0 0 0 0 0 0 0 0 0 0 0 0 0 0 0 0 0 0 0 0 0 0 0 0 0 0 0 0
0 0 0 0 0 0 0 0 0 0 0 0 0 0 0 0 0 0 0 0 0 0 0 0 0 0 0 0 0 0 0 0 0 0 0 0 0 0 0 0 0 0 0 0 0 0 0 0 0
0 0 0 0 0 0 0 0 0 0 0 0 0 0 0 0 0 0 0 0 0 0 0 0 0 0 0 0 0 0 0 0 0 0 0 0 0 0 0 0 0 0 0 0 0 0 0 0 0
0 0 0 0 0 0 0 0 0 0 0 0 0 0 0 0 0 0 0 0 0 0 0 0 0 0 0 0 0 0 0 0 0 0 0 0 0 0 0 0 0 0 0 0 0 0 0 0 0
0 0 0 0 0 0 0 0 0 0 0 0 0 0 0 0 0 0 0 0 0 0 0 0 0 0 0 0 0 0 0 0 0 0 0 0 0 0 0 0 0 0 0 0 0 0 0 0 0
0 0 0 0 0 0 0 0 0 0 0 0 0 0 0 0 0 0 0 0 0 0 0 0 0 0 0 0 0 0 0 0 0 0 0 0 0 0 0 0 0 0 0 0 0 0 0 0 0

GEFSSGP_con_cape1000_114.txt.gz
Probability
42 32 26 32 58 29 0 0 3 3 6 13 13 13 16 26 32 74 90 90 81 94 100 100 100 100 100 100 100 100 100 100 100 100 100 100 100 100 100 100 100 100 97 97 97 94 94 90 90
26 26 19 45 45 3 0 0 0 3 6 10 6 16 19 58 77 87 90 90 84 97 100 100 100 100 100 100 100 100 100 100 100 100 100 100 100 100 100 100 100 100 97 100 94 94 94 94 97
23 16 32 45 13 0 0 0 0 3 3 6 16 26 55 77 84 97 94 90 87 97 100 100 100 100 100 100 100 100 100 100 100 100 100 100 100 100 100 100 100 97 97 100 100 97 97 100 97
10 23 42 35 3 0 6 6 0 3 3 10 16 45 77 90 90 94 94 87 87 87 100 100 100 100 100 100 100 100 100 100 100 100 100 100 100 100 100 100 97 97 97 97 97 100 100 100 100
16 26 23 10 0 0 0 3 6 6 13 16 23 52 90 94 97 97 97 87 84 84 100 100 100 100 100 100 100 100 100 100 100 100 100 100 100 100 100 97 97 97 97 97 94 94 97 100 100
13 13 10 0 0 0 6 6 13 16 23 26 26 61 90 97 97 100 97 94 81 84 97 100 100 100 100 100 100 100 100 100 100 100 100 100 100 100 97 97 97 97 97 97 97 97 97 97 97
6 10 6 0 0 0 0 10 16 19 35 52 55 68 94 97 97 100 94 94 94 90 97 100 100 100 100 100 100 100 100 100 100 100 100 100 100 100 100 100 100 97 97 97 97 97 97 97 97
6 6 3 0 3 0 0 10 16 35 52 68 71 90 100 94 100 100 97 97 94 94 94 97 100 100 100 100 100 100 100 100 100 100 100 100 100 100 100 100 100 100 97 100 97 97 97 97 97
10 6 0 0 0 0 3 10 23 48 61 77 87 87 94 94 100 100 97 94 94 94 94 97 97 97 97 94 100 100 100 100 100 100 100 100 100 100 100 100 97 97 97 97 97 97 97 97 100
6 6 3 0 0 0 3 10 26 39 61 84 84 90 94 97 100 97 94 94 94 97 97 97 97 97 97 97 100 100 94 97 100 100 100 97 100 100 97 97 97 97 97 97 97 97 97 97 97
0 3 3 0 0 3 3 16 35 39 71 84 81 87 94 94 94 94 97 94 94 90 94 97 94 97 97 97 94 90 90 90 90 97 97 94 94 94 90 94 94 94 94 97 97 97 94 97 97
0 0 0 0 0 3 6 26 61 68 81 84 81 94 94 90 94 87 87 84 87 87 90 90 94 94 90 97 94 90 90 94 94 97 97 94 90 90 90 94 87 87 90 94 97 100 94 97 97
0 0 0 10 10 19 29 45 65 74 84 87 87 87 90 87 87 84 81 81 81 77 77 77 77 84 87 90 87 84 87 87 84 87 84 84 87 90 87 87 87 84 81 94 97 94 90 90 94
0 0 6 19 35 48 58 71 77 81 84 81 81 84 84 84 84 84 81 81 81 81 77 74 74 71 74 77 81 71 74 77 71 65 61 74 81 81 84 77 81 81 77 74 81 81 87 90 84
0 3 16 23 52 61 71 77 77 77 81 74 74 74 74 71 71 71 74 74 74 74 68 68 71 65 68 61 58 52 55 52 48 55 52 58 61 68 74 71 74 65 52 68 74 68 71 71 65
0 0 6 32 58 65 68 74 71 68 71 68 58 61 65 71 65 58 61 61 58 55 61 55 48 52 55 52 58 58 58 58 55 55 55 45 39 42 58 68 61 52 58 55 65 61 65 55 58
0 0 3 32 52 58 65 77 58 45 45 52 45 48 39 42 48 42 39 42 48 48 52 45 45 45 45 45 42 39 35 45 39 39 39 32 29 32 35 39 48 42 42 39 35 48 55 48 58
0 0 3 19 55 58 68 68 48 45 39 42 42 35 35 32 35 35 39 35 35 45 42 45 48 48 39 29 26 26 23 23 29 29 35 29 23 19 16 23 29 32 29 29 32 39 39 55 52
0 3 10 39 55 61 52 55 39 35 39 35 32 32 39 39 39 32 29 26 26 32 32 29 35 29 26 19 16 16 13 13 19 16 13 19 16 13 19 19 19 23 26 26 16 23 23 32 39
0 3 23 55 55 48 48 42 39 29 35 32 26 26 29 35 39 35 29 32 26 26 23 23 19 13 13 13 19 19 16 6 10 6 6 6 6 6 6 13 16 13 19 10 13 23 16 16 6
0 3 13 42 48 42 45 39 39 29 26 32 35 26 19 23 29 26 23 23 16 13 10 6 6 6 10 10 6 6 13 10 6 0 3 3 0 3 6 3 10 13 13 13 6 10 13 6 16
3 3 13 19 35 26 35 10 39 35 35 26 29 29 19 23 23 19 13 13 13 13 13 10 10 10 10 6 3 10 6 6 6 3 3 0 0 0 0 0 3 3 6 3 3 3 10 10 13
6 3 19 16 23 19 13 6 16 26 19 23 23 23 23 26 16 16 6 10 10 3 6 10 6 6 6 3 3 6 3 3 0 3 3 3 0 0 0 0 0 0 0 3 3 3 10 23 13
6 13 13 10 3 0 3 3 0 23 23 16 13 13 19 16 10 3 6 10 6 3 3 0 3 3 3 0 0 0 0 0 0 3 0 0 0 0 0 0 0 0 3 3 3 3 3 6 6
3 0 0 0 3 0 3 0 3 6 6 6 6 6 6 6 10 6 13 6 0 0 0 0 0 6 0 0 0 0 0 0 0 0 0 0 0 0 0 0 0 0 3 0 3 3 3 6 3
3 0 0 0 0 0 3 0 6 3 6 6 6 6 3 3 3 3 6 0 3 3 3 3 0 3 0 0 0 0 0 0 0 0 0 0 0 0 0 0 0 0 0 0 0 3 3 0 6
3 0 0 0 0 0 0 3 13 6 3 6 0 3 3 3 0 0 0 3 3 3 3 0 0 0 0 0 0 0 0 0 0 0 0 0 0 0 0 0 0 0 0 0 3 0 0 0 3
0 0 0 0 0 0 0 0 3 10 6 3 0 0 0 3 3 0 3 3 3 0 0 0 0 0 0 0 0 0 0 0 0 0 0 0 0 0 0 0 0 0 0 0 0 3 0 0 3
0 0 0 0 0 0 0 0 0 6 6 3 0 0 0 0 0 0 3 3 3 0 0 0 0 0 0 0 0 0 0 0 0 0 0 0 0 0 0 0 0 0 0 0 0 0 0 0 0
0 0 0 0 0 0 0 0 0 3 0 0 0 0 0 0 0 0 0 0 0 0 0 0 0 0 0 0 0 0 0 0 0 0 0 0 0 0 0 0 0 0 0 0 0 0 0 0 0

GEFSSGP_con_cape1000_120.txt.gz
Probability
39 35 55 68 84 77 29 0 0 0 3 3 6 23 35 52 68 77 68 81 97 97 100 100 100 100 100 100 100 100 100 100 100 100 100 100 100 100 100 100 100 100 97 100 97 90 90 94 87
23 45 61 74 77 55 3 0 0 3 3 3 19 35 61 61 74 77 68 84 97 97 100 100 100 100 100 100 100 100 100 100 100 100 100 100 100 97 100 100 100 97 94 90 90 87 81 87 87
35 42 52 61 61 16 0 0 0 0 3 3 35 61 68 71 84 81 71 84 94 97 100 100 100 100 100 100 100 100 100 100 100 100 100 100 100 100 100 94 97 90 94 87 87 84 81 81 87
52 52 48 39 19 6 0 0 0 0 6 13 48 74 74 81 87 81 71 84 97 97 100 100 100 100 100 100 100 100 100 100 100 100 100 100 100 100 97 97 97 94 84 84 77 81 87 84 81
42 42 32 29 10 3 0 0 0 6 3 29 65 87 87 81 84 84 77 77 94 100 100 100 100 100 100 100 100 100 100 100 100 100 100 100 100 97 97 97 90 94 90 84 77 90 90 87 81
26 26 19 10 0 0 0 3 6 6 13 23 65 87 90 87 81 81 81 84 94 100 100 100 100 100 100 100 100 100 100 100 100 100 100 97 97 97 97 97 94 94 97 94 90 87 87 87 81
13 10 3 6 0 0 3 3 3 19 29 32 65 87 90 84 94 81 84 87 90 97 100 100 100 100 100 100 100 100 100 100 100 100 100 100 100 97 97 97 97 97 94 90 94 94 94 97 94
6 6 0 0 0 0 3 3 10 26 42 52 74 90 87 90 90 90 90 90 100 97 94 97 97 97 100 100 100 100 100 100 100 100 100 100 100 100 100 100 100 97 97 97 94 87 97 97 97
0 0 0 0 0 0 0 6 16 35 45 61 87 94 90 94 94 97 100 97 97 94 94 94 94 94 97 94 97 97 94 94 97 100 100 100 100 100 100 100 100 100 97 97 100 94 97 100 100
0 0 0 0 0 0 0 10 19 42 48 71 84 90 87 90 94 94 94 94 94 94 90 94 90 94 94 97 97 94 94 97 97 97 100 100 100 100 97 100 100 100 100 100 100 100 100 100 100
0 0 0 0 0 0 0 6 29 45 58 71 84 87 81 90 94 90 97 97 97 94 94 90 90 94 94 94 94 94 94 97 97 100 100 100 100 100 94 97 100 100 100 97 100 100 97 97 90
0 0 0 0 0 0 3 29 48 61 71 77 81 81 87 87 90 94 87 90 87 84 84 90 90 94 90 87 87 87 87 90 94 94 94 97 100 90 94 94 97 97 97 97 97 100 97 94 87
0 0 0 0 3 6 19 32 65 61 71 77 84 87 87 90 81 81 77 77 77 81 81 77 81 90 90 87 84 74 81 77 84 81 77 87 84 84 81 84 84 87 90 94 94 97 94 87 90
0 0 0 0 3 13 26 35 55 65 68 77 84 84 84 74 81 81 74 77 77 71 65 74 81 81 77 74 74 65 61 65 52 52 58 61 61 71 74 77 74 77 74 81 81 81 84 84 90
0 0 0 3 3 13 29 35 45 48 65 77 81 77 77 77 74 77 77 77 65 65 65 65 61 68 74 71 55 52 48 48 48 48 55 48 52 52 55 61 68 68 74 68 74 71 71 68 68
0 0 0 3 3 3 19 32 42 55 65 74 68 74 71 71 61 61 55 55 52 55 68 55 48 48 55 55 52 48 42 42 45 48 48 39 42 42 48 45 48 52 55 55 55 58 65 65 58
0 0 0 3 6 10 19 32 39 55 65 65 68 65 55 55 45 45 42 42 55 61 65 58 61 48 39 42 45 35 35 29 39 45 42 32 23 29 32 39 58 52 48 45 26 29 52 45 45
0 0 0 0 3 19 19 29 35 48 48 55 48 52 48 32 32 26 26 35 45 58 68 65 65 58 55 42 42 42 39 32 35 35 32 23 23 19 23 29 29 42 39 45 42 39 35 32 35
0 0 0 3 6 13 19 39 29 29 45 52 42 42 35 32 26 19 23 26 39 52 58 58 58 48 55 52 35 32 29 26 19 26 26 19 16 16 19 16 19 26 39 32 29 26 16 26 39
0 0 0 3 6 13 16 32 29 35 32 35 35 39 29 26 26 23 26 29 35 45 42 45 42 39 45 48 42 42 19 16 23 23 23 10 10 13 6 19 13 19 16 13 16 19 19 23 13
0 0 3 3 6 3 10 19 19 29 32 29 32 32 32 32 29 26 29 29 26 29 32 32 35 32 32 26 29 26 26 29 19 10 13 13 10 6 3 10 10 19 16 16 23 26 16 6 19
0 0 0 0 3 3 10 0 16 26 29 35 29 26 29 29 26 29 26 23 19 23 23 29 29 26 26 16 19 16 6 3 6 10 13 10 3 3 3 3 3 6 6 10 10 3 3 0 6
0 0 0 0 0 0 0 0 13 29 23 32 26 26 29 23 23 29 29 29 19 16 23 19 26 16 13 13 10 6 10 6 6 3 3 0 3 3 3 6 3 6 3 3 3 0 0 6 0
0 0 0 0 0 0 0 0 10 19 23 29 23 16 26 26 23 23 19 23 16 13 10 10 16 16 10 6 6 10 10 10 6 6 3 0 0 3 0 0 0 0 0 0 0 0 0 3 0
0 0 3 0 0 0 0 0 10 6 16 19 26 13 16 16 13 13 16 13 10 6 6 6 10 6 6 6 6 6 6 6 6 3 0 0 0 0 0 0 0 0 0 0 0 0 0 0 0
0 0 0 0 0 0 0 0 10 10 6 16 16 13 13 6 0 0 6 10 10 10 3 3 6 3 3 3 3 3 3 3 0 0 0 0 0 0 0 0 0 0 0 0 0 0 0 0 0
0 0 0 0 0 0 0 6 6 0 0 3 6 10 6 3 0 0 3 6 10 3 3 3 6 3 3 3 3 3 0 0 0 0 0 0 0 0 0 0 0 0 0 0 3 0 0 0 0
0 0 0 0 0 0 0 0 10 3 0 3 0 6 3 3 0 0 0 0 3 3 6 6 6 3 3 3 0 0 0 0 0 0 0 0 0 0 0 0 0 0 0 0 3 3 3 3 3
0 0 0 0 0 0 0 0 0 3 3 3 0 3 3 3 0 0 0 0 0 3 3 3 3 0 0 0 0 0 0 0 0 0 0 0 0 0 0 0 0 0 0 3 3 3 3 3 3
0 0 0 0 0 0 0 0 0 0 0 0 0 0 3 3 0 0 0 0 3 3 3 3 0 0 0 0 0 0 0 0 0 0 0 0 0 0 0 0 0 0 0 0 3 3 0 0 3

GEFSSGP_con_cape1000_126.txt.gz
Probability
55 42 39 26 29 10 6 10 0 6 6 10 19 35 48 45 45 61 71 77 97 97 100 100 100 100 100 100 100 100 100 100 100 100 100 100 100 100 100 100 94 97 97 94 94 97 97 97 94
29 23 26 32 35 10 6 0 0 3 3 13 26 45 58 65 71 90 81 77 97 100 100 100 100 100 100 100 100 100 100 100 100 100 100 100 100 97 97 94 94 100 100 97 97 94 94 100 90
23 23 19 29 16 10 3 0 3 10 13 26 29 42 52 65 81 90 84 81 97 100 100 100 100 100 100 100 100 100 100 100 100 100 100 100 100 97 97 94 97 97 94 97 87 87 90 90 90
23 23 26 23 10 6 3 3 3 13 13 16 32 52 52 68 84 84 90 90 100 100 100 100 100 100 100 100 100 100 100 100 100 100 100 100 100 100 100 100 100 100 100 94 87 87 90 90 90
13 13 10 6 6 6 6 10 6 16 19 32 42 42 65 61 71 84 87 90 100 100 100 100 100 100 100 100 100 100 100 100 100 100 100 100 100 100 100 97 100 100 97 97 90 90 87 84 84
13 10 3 3 0 0 3 10 23 26 32 39 48 48 52 58 71 81 84 94 97 97 97 97 97 100 100 100 100 100 100 100 100 100 100 100 100 100 100 97 97 97 97 94 90 94 87 84 87
16 6 3 0 0 0 13 26 32 39 42 45 45 55 52 55 58 81 77 90 94 97 97 97 97 97 97 100 97 100 100 100 100 100 100 100 100 100 100 97 97 97 97 97 94 94 94 90 90
6 3 0 0 0 3 19 29 23 42 39 52 61 45 45 52 55 65 74 81 87 94 94 94 94 94 94 97 100 100 100 100 100 100 100 97 97 97 100 100 97 97 97 97 97 94 94 94 97
3 3 0 0 0 3 23 23 19 35 39 45 52 52 48 45 55 65 77 74 81 84 90 84 87 87 94 94 97 97 100 100 100 100 97 97 94 90 97 100 100 100 100 97 97 97 97 97 100
0 0 0 0 3 6 13 13 23 29 29 35 42 45 48 45 55 61 61 58 61 68 74 77 77 81 84 90 84 87 84 84 84 90 90 94 87 84 94 97 100 100 100 100 100 100 100 100 87
0 0 0 6 13 16 16 23 19 32 39 35 42 48 48 48 52 55 48 55 52 55 61 65 74 77 84 81 84 81 74 74 74 71 68 61 55 58 58 68 74 74 81 77 90 100 97 87 74
0 0 0 6 13 16 19 32 32 35 32 42 48 45 42 52 55 45 55 52 52 55 58 58 58 65 61 61 65 65 71 68 61 52 52 48 35 32 26 39 42 42 45 48 52 58 68 55 61
0 0 0 3 3 10 23 29 32 35 32 48 45 48 55 48 45 42 52 52 45 48 52 45 48 45 42 39 52 52 42 42 39 29 29 26 23 16 10 13 16 23 23 19 29 39 42 42 32
0 0 0 0 0 6 10 13 32 35 39 42 42 42 52 48 48 45 45 35 39 45 42 42 39 32 29 23 19 23 29 19 16 16 16 10 6 6 6 6 10 10 10 6 10 13 16 19 26
0 0 3 0 3 0 0 6 16 32 35 39 39 35 42 48 39 26 26 26 35 39 32 29 32 29 26 19 19 16 10 6 6 10 13 10 3 3 3 3 3 3 3 6 6 6 6 6 0
0 0 0 0 0 0 0 3 13 23 29 26 23 29 35 35 32 23 26 19 23 32 23 23 23 16 13 13 13 10 10 6 6 3 3 6 6 3 3 3 3 3 3 3 3 3 3 3 3
0 0 0 0 0 0 0 3 10 13 26 26 19 26 26 23 19 19 32 26 19 19 16 13 19 13 13 10 6 13 13 0 0 3 3 6 6 3 3 3 3 3 3 3 3 0 3 3 3
0 0 0 0 0 0 0 0 6 3 10 6 13 3 10 10 6 16 16 13 10 6 3 0 0 3 6 6 3 3 3 0 0 0 3 3 3 3 3 3 3 3 3 3 3 0 0 0 0
0 0 0 0 0 0 0 3 6 0 3 13 10 6 10 6 3 6 13 13 10 0 0 0 0 0 0 0 0 0 0 0 0 0 3 3 3 3 3 3 3 3 3 3 3 3 3 0 0
0 0 0 0 3 0 3 6 10 13 6 10 6 10 6 6 6 10 10 6 10 6 6 0 0 0 0 0 0 0 0 0 0 0 0 0 0 0 0 0 0 0 0 0 0 0 3 3 0
0 0 0 3 3 3 3 3 3 6 10 10 6 10 10 6 10 10 6 6 6 6 3 3 0 0 0 0 0 0 0 0 0 0 0 0 0 0 0 0 0 0 0 0 0 0 0 0 0
0 0 0 0 0 3 0 0 3 3 3 6 3 3 3 6 3 3 3 3 3 0 0 0 0 0 0 0 0 0 0 0 0 0 0 0 0 0 0 0 0 0 0 0 0 0 0 0 0
0 0 0 0 0 0 0 0 3 3 0 3 3 6 3 0 0 0 3 0 3 3 0 0 0 0 0 0 0 0 0 0 0 0 0 0 0 0 0 0 0 0 0 0 0 0 0 0 0
0 0 0 0 0 0 0 0 0 3 0 0 3 6 0 0 0 0 0 3 3 0 0 0 0 0 0 0 0 0 0 0 0 0 0 0 0 0 0 0 0 0 0 0 0 0 0 0 0
0 0 0 0 0 0 0 0 0 0 0 0 3 6 0 0 0 3 3 0 0 0 0 0 0 0 0 0 0 0 0 0 0 0 0 0 0 0 0 0 0 0 0 0 0 0 0 0 0
0 0 0 0 0 0 0 0 0 0 0 3 3 6 6 0 0 3 6 0 0 0 0 0 0 0 0 0 0 0 0 0 0 0 0 0 0 0 0 0 0 0 0 0 0 0 0 0 0
0 0 0 0 0 0 0 0 0 0 0 0 3 3 0 0 0 3 3 0 0 0 0 0 0 0 0 0 0 0 0 0 0 0 0 0 0 0 0 0 0 0 0 0 0 0 0 0 0
0 0 0 0 0 0 0 0 0 0 3 0 0 0 0 0 0 0 3 3 3 3 0 0 0 0 0 0 0 0 0 0 0 0 0 0 0 0 0 0 0 0 0 0 0 0 0 0 0
0 0 0 0 0 0 0 0 0 0 0 0 3 0 0 0 0 3 3 3 0 0 0 3 0 0 0 0 0 0 0 0 0 0 0 0 0 0 0 0 0 0 0 0 0 0 0 0 0
0 0 0 0 0 0 0 0 0 0 0 0 3 0 0 0 0 0 0 0 0 3 3 0 0 0 0 0 0 0 0 0 0 0 0 0 0 0 0 0 0 0 0 0 0 0 0 0 0